Regional Weather Roundup
Issued by NWS

Home | Current Version | Previous Version | Graphics & Text | Print | Product List | Glossary Off
Versions: 1 2 3 4 5 6 7 8 9 10 11 12 13 14 15 16 17 18 19 20 21 22 23 24 25 26 27 28 29 30 31 32 33 34 35 36 37 38 39 40 41 42 43 44 45 46 47 48 49 50

000
ASUS43 KMPX 291201
RWRMN
WEATHER ROUNDUP FOR MINNESOTA
NATIONAL WEATHER SERVICE TWIN CITIES/CHANHASSEN MN
700 AM CDT MON JUN 29 2015


NOTE: "FAIR" INDICATES FEW OR NO CLOUDS BELOW 12,000 FEET WITH NO
SIGNIFICANT WEATHER AND/OR OBSTRUCTIONS TO VISIBILITY. N/A MEANS
CURRENT SKY AND/OR WEATHER CONDITIONS ARE NOT AVAILABLE.

MNZ060>063-068>070-291300-
   Twin Cities Metro

CITY           SKY/WX    TMP DP  RH WIND       PRES   REMARKS
TWIN CITIES    MOSUNNY   66  63  90 SW3       29.82S
6HR MIN TEMP:  65; 6HR MAX TEMP:  68;

ST PAUL        FOG       64  63  96 NW3       29.82S VSB 1
CRYSTAL        SUNNY     67  63  87 W5        29.81S
BLAINE         SUNNY     64  63  94 CALM      29.82S
EDEN PRAIRIE   SUNNY     67  64  90 W3        29.82R
6HR MIN TEMP:  63; 6HR MAX TEMP:  67;

SOUTH ST PAUL  SUNNY     65  64  95 W3        29.82S
LAKE ELMO      FOG       61  61 100 CALM      29.83S VSB<1/4
$$
MNZ001>005-007-008-013>017-022>024-027-028-291300-
   Northwest Minnesota

CITY           SKY/WX    TMP DP  RH WIND       PRES   REMARKS
BEMIDJI        SUNNY     62  59  91 W5        29.83S
HALLOCK        SUNNY     63  59  88 W3        29.80R
ROSEAU         MOSUNNY   66  61  82 W6        29.79R
WARROAD        PTSUNNY   63  59  88 W5        29.80R
THIEF RVR FALL SUNNY     63  59  88 W7        29.83S
CROOKSTON      SUNNY     63  61  94 CALM      29.84R
FOSSTON        SUNNY     57  57 100 CALM      29.85R FOG
DETROIT LAKES  SUNNY     64  61  88 NW6       29.88R
MOORHEAD       SUNNY     63  61  94 SW3       29.87R
PARK RAPIDS    SUNNY     63  60  90 W3        29.85R FOG
MAHNOMEN       FAIR      61  60  94 S3        29.85S
$$
MNZ006-009>011-018-025>026-291300-
   North Central Minnesota

CITY           SKY/WX    TMP DP  RH WIND       PRES   REMARKS
BAUDETTE       PTSUNNY   63  60  90 SW3       29.78R
FLAG ISLAND    MOSUNNY   66  61  82 N6        29.77S
INTL FALLS     CLOUDY    62  60  93 W3        29.76F FOG
6HR MIN TEMP:  54; 6HR MAX TEMP:  62;

WASKISH        MOSUNNY   66  63  88 SW5       29.80S
BIG FORK       SUNNY     61  61 100 CALM      29.81R FOG
LONGVILLE      SUNNY     59  59 100 CALM      29.83S FOG
GRAND RAPIDS   SUNNY     64  61  88 W3        29.82S
CRANE LAKE     SUNNY     52  52 100 SE1       29.78S
ORR            MOSUNNY   59  57  94 CALM      29.76F
COOK           SUNNY     59  57  94 CALM      29.80R
WALKER         FAIR      60  58  93 W5        29.83S
$$
MNZ012-019>021-037-291300-
   Northeast Minnesota

CITY           SKY/WX    TMP DP  RH WIND       PRES   REMARKS
DULUTH         SUNNY     63  60  90 CALM      29.80R
6HR MIN TEMP:  59; 6HR MAX TEMP:  63;

ELY            MOSUNNY   59  57  94 CALM      29.79R FOG
HIBBING        MOSUNNY   57  56  96 CALM      29.80S
EVELETH          N/A    N/A N/A N/A MISG        N/A
DULUTH HARBOR  SUNNY     63  61  94 SW7       29.79S
TWO HARBORS    SUNNY     64  59  82 W2        29.76S
SILVER BAY     SUNNY     57  55  94 CALM      29.76S
GRAND MARAIS     N/A     50  50 100 CALM      29.75S
G MARAIS ARPRT   N/A     57  55  94 SW3       29.79S FOG
$$
MNZ029>031-032-039>041-046>048-054>057-064-291300-
   West Central Minnesota

CITY           SKY/WX    TMP DP  RH WIND       PRES   REMARKS
FERGUS FALLS   SUNNY     61  61 100 CALM      29.87S
WHEATON        SUNNY     63  61  94 W5        29.89S
MORRIS         SUNNY     63  61  94 NW3       29.87R FOG
ALEXANDRIA     MOSUNNY   65  62  90 W6        29.89R
ELBOW LAKE     FAIR      61  60  97 W6        29.87S
WADENA         SUNNY     63  61  94 W6        29.86S
GLENWOOD       SUNNY     64  63  94 W5        29.88S
APPLETON       SUNNY     63  61  94 W3        29.88R
BENSON         MOSUNNY   63  59  88 CALM      29.88R
ORTONVILLE     SUNNY     66  59  77 W7        29.88S
MADISON        MOSUNNY   61  59  94 W7        29.89S
WILLMAR        FAIR      64  63  94 NW6       29.89R
$$
MNZ033>034-036-042>043-049>051-058-059-291300-
   Central Minnesota

CITY           SKY/WX    TMP DP  RH WIND       PRES   REMARKS
ST CLOUD       SUNNY     64  61  90 NW6       29.84R
6HR MIN TEMP:  60; 6HR MAX TEMP:  64;

SAUK CENTRE    FAIR      63  61  94 W3        29.87R
PAYNESVILLE    SUNNY     59  59 100 SW5       29.87R FOG
AITKIN         SUNNY     63  55  77 CALM      29.81S
PINE RIVER     SUNNY     63  61  94 CALM      29.88R
BRAINERD       SUNNY     62  60  93 CALM      29.84R FOG
STAPLES        SUNNY     63  61  94 W5        29.86R
LONG PRAIRIE   FAIR      64  61  88 W7        29.87S
LITTLE FALLS   SUNNY     61  61 100 CALM      29.85R
LITCHFIELD     SUNNY     68  64  88 W7        29.86S
BUFFALO        SUNNY     66  61  84 W6        29.84S
MAPLE LAKE     SUNNY     66  63  91 CALM      29.85R
$$
MNZ037-044-045-052-053-291300-
   East Central Minnesota

CITY           SKY/WX    TMP DP  RH WIND       PRES   REMARKS
PRINCETON      SUNNY     64  63  94 W3        29.83R
MORA           SUNNY     59  59 100 CALM      29.84R
CAMBRIDGE      SUNNY     64  57  77 CALM      29.80S
MOOSE LAKE     SUNNY     59  59 100 CALM      29.80R
HINCKLEY       FAIR      59  59 100 CALM      29.82R
CLOQUET        SUNNY     63  61  94 W6        29.81R
MCGREGOR       SUNNY     61  61 100 CALM      29.83R
$$
MNZ071>073-080-081-089-090-097-098-291300-
   Southwest Minnesota

CITY           SKY/WX    TMP DP  RH WIND       PRES   REMARKS
MONTEVIDEO     MOSUNNY   64  63  94 NW6       29.89S
GRANITE FALLS  SUNNY     61  60  96 CALM      29.90R FOG
CANBY          SUNNY     63  59  87 W5        29.91S
MARSHALL       SUNNY     63  57  82 W7        29.90R
REDWOOD FALLS  SUNNY     65  62  90 NW7       29.87R
OLIVIA         SUNNY     61  57  88 NW5       29.87R
PIPESTONE      SUNNY     63  61  94 W3        29.93R
WINDOM         SUNNY     64  61  88 W7        29.90R
WORTHINGTON    SUNNY     64  57  77 W7        29.91S
JACKSON        SUNNY     64  61  88 NW7       29.90R
TRACY          SUNNY     65  62  87 W6        29.90R
SLAYTON        SUNNY     64  61  88 CALM      29.92S
$$
MNZ065>067-074>077-082>085-091>093-291300-
   South Central Minnesota

CITY           SKY/WX    TMP DP  RH WIND       PRES   REMARKS
MANKATO        SUNNY     64  61  88 W6        29.85R
NEW ULM        SUNNY     63  63 100 W7        29.86R
ST JAMES       SUNNY     64  63  94 W9        29.88R
FAIRMONT       SUNNY     64  57  77 NW8       29.87R
GLENCOE        SUNNY     66  64  93 W5        29.84S
FARIBAULT      SUNNY     63  63 100 CALM      29.84R FOG
OWATONNA       SUNNY     63  61  94 CALM      29.85R FOG
WASECA         SUNNY     63  61  94 W3        29.86R FOG
ALBERT LEA       N/A     64  63  94 W3        29.85R
$$
MNZ078>079-086>088-094>096-291300-
   Southeast Minnesota

CITY           SKY/WX    TMP DP  RH WIND       PRES   REMARKS
ROCHESTER      SUNNY     62  61  96 NW7       29.85R FOG
6HR MIN TEMP:  58; 6HR MAX TEMP:  62;

RED WING       FOG       63  63 100 CALM      29.82R VSB<1/4
DODGE CENTER   SUNNY     63  61  94 CALM      29.84S FOG
WINONA         CLOUDY    63  61  94 CALM      29.82R FOG
AUSTIN         FOG       61  59  94 CALM      29.84S VSB 1/2
PRESTON        SUNNY     60  59  96 NW5       29.84S FOG
$$
ABBREVIATIONS USED IN REMARKS
   TC - TEMPERATURES IN CELSIUS
  WCI - WIND CHILL INDEX
   HX - HEAT INDEX
  VSB - VISIBILITY
$$


USA.gov is the U.S. government's official web portal to all federal, state and local government web resources and services.